Regional Weather Roundup
Issued by NWS Albany, NY

Home | Current Version | Previous Version | Text Only | Print | Product List | Glossary On
Versions: 1 2 3 4 5 6 7 8 9 10 11 12 13 14 15 16 17 18 19 20 21 22 23 24 25 26 27 28
000
ASUS41 KALY 261310
RWRALY

NEW YORK STATE HOURLY WEATHER ROUNDUP
NATIONAL WEATHER SERVICE ALBANY NY
900 AM EDT TUE JUL 26 2016

NOTE: "FAIR" INDICATES FEW OR NO CLOUDS BELOW 12,000 FEET WITH NO
SIGNIFICANT WEATHER AND/OR NO OBSTRUCTIONS TO VISIBILITY.

NYZ032-033-038>043-046>054-057>066-NYZ062>081-082-084-261400-
EAST


CITY           SKY/WX    TMP DP  RH WIND       PRES   REMARKS
ALBANY         PTSUNNY   76  64  66 W12       29.89R
GLENS FALLS    SUNNY     77  62  59 W7        29.87R
POUGHKEEPSIE   SUNNY     78  69  73 VRB6      29.90R
NEWBURGH       MOSUNNY   73  72  94 W7        29.94R
MONTGOMERY     SUNNY     77  71  82 W7        29.92S
WHITE PLAINS   SUNNY     77  69  76 NW9       29.92R
ISLIP          MOSUNNY   80  70  71 NW10      29.89S
NEW YORK CITY  MOSUNNY   79  69  71 NW6       29.91S
CENTRAL PARK   SUNNY     76  69  79 CALM      29.95R
$$

NYZ005>009-017-018-044>046-055-056-261400-
CENTRAL


CITY           SKY/WX    TMP DP  RH WIND       PRES   REMARKS
FULTON         PTSUNNY   74  65  73 W14G20    29.94R
SYRACUSE       PTSUNNY   71  66  84 W14       29.94R
ROME           PTSUNNY   71  66  84 W13       29.94R
ELMIRA         MOSUNNY   74  64  71 SW6       29.98R
BINGHAMTON     SUNNY     70  64  81 W9        29.99R
MONTICELLO     PTSUNNY   70  68  94 W8        29.98S
$$

NYZ026>034-041>043-087-261400-
NORTH


CITY           SKY/WX    TMP DP  RH WIND       PRES   REMARKS
WATERTOWN      MOSUNNY   73  61  65 SW6       29.91R
FORT DRUM      NOT AVBL
MASSENA        SUNNY     73  64  73 W13       29.87R
SARANAC LAKE   MOSUNNY   69  60  73 VRB6      29.90R
PLATTSBURGH    SUNNY     78  64  61 VRB3      29.81S
$$

NYZ001>004-010>016-019>021-085-261400-
WEST


CITY           SKY/WX    TMP DP  RH WIND       PRES   REMARKS
NIAGARA FALLS  MOSUNNY   72  59  63 NW9       30.01R
BUFFALO        MOSUNNY   71  59  65 VRB7      30.01R
DUNKIRK        SUNNY     72  61  68 W9        30.04R
JAMESTOWN      SUNNY     68  57  68 NW6       30.07R
WELLSVILLE     SUNNY     70  58  65 W14       30.06S
ROCHESTER      MOSUNNY   72  63  73 NW12      29.99R
PENN YAN       MOSUNNY   71  60  68 W10       29.99S
$$

             KEY
       WCI = WIND CHILL INDEX
       VSB = VISIBILITY
       HX  = HEAT INDEX
$$




USA.gov is the U.S. government's official web portal to all federal, state and local government web resources and services.